Location: Blue Mountain Vista Observatory
(40.6992°N, 75.9422°W)
Time: 04:03:50
(UTC-05:00)

IDEFIX/ARIANE 42P - Visible Passes

Search period start: 25 February 2017 00:00
Search period end: 07 March 2017 00:00
Orbit: 786 x 802 km, 98.2° (Epoch: 23 February)

Date Brightness Start Highest point End Pass type
(mag) Time Alt. Az. Time Alt. Az. Time Alt. Az.
25 Feb 3.6 05:50:56 10° NNE 05:56:02 52° E 06:01:05 10° S visible
25 Feb 6.0 18:51:47 10° WSW 18:54:17 13° W 18:56:49 10° WNW visible
26 Feb 4.8 05:23:05 10° NE 05:27:34 28° E 05:32:00 10° SSE visible
26 Feb 5.3 18:21:25 10° SSW 18:25:41 25° W 18:29:58 10° NW visible
27 Feb 5.7 04:55:57 10° NE 04:58:58 15° E 05:01:59 10° SE visible
28 Feb 2.9 06:05:29 10° NNE 06:10:43 72° ESE 06:15:53 10° S visible
01 Mar 4.2 05:37:26 10° NNE 05:42:18 39° E 05:47:08 10° SSE visible
01 Mar 5.8 18:36:57 10° SW 18:40:29 18° W 18:44:01 10° NW visible
02 Mar 5.3 05:09:50 10° NE 05:13:47 21° E 05:17:42 10° SE visible
03 Mar 5.9 04:43:38 10° ENE 04:45:08 11° E 04:46:38 10° ESE visible
04 Mar 3.5 05:51:54 10° NNE 05:57:01 54° E 06:02:05 10° S visible
04 Mar 6.1 18:53:03 10° WSW 18:55:19 13° W 18:57:35 10° WNW visible
05 Mar 4.7 05:24:01 10° NE 05:28:33 29° E 05:33:03 10° SSE visible
05 Mar 5.5 18:22:31 10° SSW 18:26:42 24° W 18:30:53 10° NW visible
06 Mar 5.6 04:56:48 10° NE 04:59:59 16° E 05:03:07 10° SE visible
